Simultaneous Nadir Overpasses (SNOs) Predictions

Prediction of SNOs between GOES-15 and NOAA-20 Satellite Orbit:

Table of predicted SNOs for the next 14.0 days since TLE Epoch: 5/11/2024
Index Date Time (GOES-15) GOES-15 Lat,Lon NOAA-20 Lat,Lon Distance(km) Time Diff (sec)
1 05/12/2024 09:28:32 -0.04, 61.60 -0.64, 58.90 308.04 80
2 05/13/2024 09:12:25 -0.05, 61.63 0.37, 63.44 206.88 80
3 05/14/2024 21:31:31 0.04, 61.65 0.80, 58.17 395.72 80
4 05/15/2024 21:15:23 0.05, 61.67 -0.16, 62.72 119.48 80
5 05/17/2024 09:34:36 -0.03, 61.71 -1.01, 57.42 488.89 80
6 05/18/2024 09:18:30 -0.04, 61.73 0.02, 61.96 26.04 80
7 05/20/2024 21:18:48 0.03, 61.78 0.15, 61.24 62.38 80
8 05/21/2024 21:02:40 0.03, 61.81 -0.83, 65.78 452.30 80
9 05/23/2024 09:21:54 -0.01, 61.86 -0.30, 60.48 156.94 80
10 05/24/2024 09:05:46 -0.02, 61.89 0.69, 65.02 357.13 80
